Weather in Beregove

Ukraine / Zakarpattia District     48˚12′21″N   22˚38′41″E
temp.,
°C
wind,
m/s
gust,
m/s
humid.,
%
clouds,
%
prec.,
mm/h
press.,
hPa
HPBL,
m
30 november, mon
mon3023:00e119694 0.1 102476
02:00−1˚ese119697 0.4 102545
05:00−2˚se119593 0.0 102527
08:00−3˚e119384 0.0 102621
11:00e00820 0.0 1028223
14:00+1˚nw12775 0.0 1027544
17:00−2˚nnw118814 0.0 102821
20:00−2˚ene11907 0.0 102821
1 december, tue
tue123:00−3˚e11900 0.0 102821
02:00−3˚e11900 0.0 102821
05:00−4˚e11890 0.0 102721
08:00−4˚e12870 0.0 102721
11:00e12700 0.0 1026196
14:00+2˚e12630 0.0 1024329
17:00−2˚ne11760 0.0 102421
20:00−2˚ne12750 0.0 102521
2 december, wed
wed223:00−2˚ne22670 0.0 102421
02:00−2˚ne22630 0.0 102521
05:00−3˚ene12600 0.0 102321
08:00−3˚ene11580 0.0 102321
11:00+1˚e12490 0.0 1023121
14:00+3˚e11463 0.0 1021169
17:00−1˚ene12550 0.0 102121
20:00−1˚e12530 0.0 102121
3 december, thu
thu323:00−2˚ene225114 0.0 102121
02:00−1˚e124941 0.0 102021
05:00−2˚e225145 0.0 101921
08:00−2˚ene225655 0.0 101921
11:00+2˚e125388 0.0 1019103
14:00+4˚ene235694 0.0 1016140
17:00+2˚ene1256100 0.0 101522
20:00+1˚ene125594 0.0 101522
4 december, fri
fri423:00+1˚e225773 0.0 101322
02:00+2˚e226377 0.0 101222
05:00+2˚e2266100 0.0 101022
08:00+2˚e346981 0.0 101061
11:00+6˚ese496133 0.0 1009306
14:00+7˚ese266960 0.0 1008204
17:00+5˚se2484100 0.0 100974
20:00+5˚e2390100 0.1 101043